| time (UTC) | temp F | wind direction | speed knots | gust knots | rain 1hr in | rain 24hr in | rain mn in | humidity % | barometer mb |
| 20260504082003 | 62 | 81 | 0.0 | 1.7 | 0.00 | 0.00 | 0.00 | 93 | 1020.8 |
| 20260504081002 | 63 | 112 | 1.7 | 1.7 | 0.00 | 0.00 | 0.00 | 93 | 1020.9 |
| 20260504045004 | 67 | 138 | 8.7 | 19.1 | 0.00 | 0.00 | 0.00 | 91 | 1021.7 |
| 20260504044004 | 67 | 161 | 8.7 | 18.2 | 0.00 | 0.00 | 0.00 | 91 | 1021.4 |
| 20260504043003 | 67 | 154 | 5.2 | 18.2 | 0.00 | 0.00 | 0.00 | 91 | 1021.5 |
| 20260504042003 | 67 | 161 | 5.2 | 22.6 | 0.00 | 0.00 | 0.00 | 90 | 1021.3 |
| 20260504041003 | 68 | 142 | 12.2 | 24.3 | 0.00 | 0.00 | 0.00 | 90 | 1021.1 |
| 20260504040004 | 68 | 154 | 12.2 | 26.1 | 0.00 | 0.00 | 0.00 | 89 | 1021.0 |
| 20260504035004 | 68 | 120 | 14.8 | 26.1 | 0.00 | 0.00 | 0.00 | 89 | 1020.9 |
| 20260504034004 | 68 | 173 | 7.8 | 20.9 | 0.00 | 0.00 | 0.00 | 88 | 1020.6 |
| 20260504033004 | 68 | 148 | 10.4 | 25.2 | 0.00 | 0.00 | 0.00 | 89 | 1020.7 |
| 20260504032003 | 68 | 139 | 13.9 | 25.2 | 0.00 | 0.00 | 0.00 | 89 | 1020.5 |
| 20260504030007 | 69 | 164 | 8.7 | 21.7 | 0.00 | 0.00 | 0.00 | 88 | 1020.3 |
| 20260504025004 | 69 | 145 | 12.2 | 26.1 | 0.00 | 0.00 | 0.00 | 88 | 1020.0 |
| 20260504024004 | 69 | 137 | 7.8 | 25.2 | 0.00 | 0.00 | 0.00 | 88 | 1019.9 |
| 20260504023004 | 69 | 139 | 13.9 | 25.2 | 0.00 | 0.00 | 0.00 | 88 | 1019.9 |
| 20260504022003 | 69 | 136 | 11.3 | 25.2 | 0.00 | 0.00 | 0.00 | 88 | 1019.8 |
| 20260504021004 | 70 | 148 | 10.4 | 26.9 | 0.00 | 0.00 | 0.00 | 87 | 1019.5 |
| 20260504020003 | 70 | 137 | 18.2 | 26.9 | 0.00 | 0.00 | 0.00 | 86 | 1019.2 |
| 20260504015003 | 70 | 145 | 13.9 | 21.7 | 0.00 | 0.00 | 0.00 | 84 | 1019.2 |
| 20260504014003 | 71 | 153 | 8.7 | 21.7 | 0.00 | 0.00 | 0.00 | 83 | 1019.0 |
| 20260504013004 | 72 | 148 | 11.3 | 24.3 | 0.00 | 0.00 | 0.00 | 81 | 1018.9 |
| 20260504012003 | 73 | 149 | 14.8 | 21.7 | 0.00 | 0.00 | 0.00 | 78 | 1018.7 |
| 20260504011004 | 73 | 130 | 8.7 | 21.7 | 0.00 | 0.00 | 0.00 | 77 | 1018.6 |
| 20260504010004 | 74 | 161 | 8.7 | 20.9 | 0.00 | 0.00 | 0.00 | 75 | 1018.3 |
| 20260504004003 | 77 | 150 | 9.6 | 20.0 | 0.00 | 0.00 | 0.00 | 70 | 1018.1 |
| 20260504003003 | 77 | 158 | 7.8 | 17.4 | 0.00 | 0.00 | 0.00 | 68 | 1018.0 |
| 20260504002003 | 77 | 155 | 6.1 | 25.2 | 0.00 | 0.00 | 0.00 | 68 | 1017.9 |
| 20260504000003 | 79 | 158 | 9.6 | 21.7 | 0.00 | 0.00 | 0.00 | 64 | 1017.9 |
| 20260503235003 | 79 | 143 | 13.0 | 22.6 | 0.00 | 0.00 | 0.00 | 63 | 1017.8 |
| 20260503234004 | 80 | 147 | 6.1 | 22.6 | 0.00 | 0.00 | 0.00 | 61 | 1018.1 |
| 20260503233003 | 80 | 167 | 8.7 | 19.1 | 0.00 | 0.00 | 0.00 | 62 | 1017.9 |
| 20260503232003 | 81 | 153 | 11.3 | 19.1 | 0.00 | 0.00 | 0.00 | 56 | 1018.0 |
| 20260503231003 | 81 | 182 | 11.3 | 20.0 | 0.00 | 0.00 | 0.00 | 56 | 1017.9 |
| 20260503230004 | 83 | 163 | 7.8 | 15.6 | 0.00 | 0.00 | 0.00 | 51 | 1018.0 |
| 20260503225003 | 83 | 199 | 6.1 | 19.1 | 0.00 | 0.00 | 0.00 | 54 | 1018.0 |
| 20260503224004 | 84 | 162 | 6.1 | 15.6 | 0.00 | 0.00 | 0.00 | 51 | 1017.9 |
| 20260503223004 | 83 | 143 | 7.0 | 17.4 | 0.00 | 0.00 | 0.00 | 56 | 1018.1 |
| 20260503221003 | 85 | 218 | 5.2 | 17.4 | 0.00 | 0.00 | 0.00 | 50 | 1018.2 |
| 20260503220003 | 85 | 163 | 2.6 | 17.4 | 0.00 | 0.00 | 0.00 | 50 | 1018.2 |
| 20260503215008 | 86 | 211 | 3.5 | 11.3 | 0.00 | 0.00 | 0.00 | 48 | 1018.1 |
| 20260503214004 | 87 | 241 | 2.6 | 13.9 | 0.00 | 0.00 | 0.00 | 44 | 1018.2 |
| 20260503213003 | 85 | 140 | 6.1 | 13.0 | 0.00 | 0.00 | 0.00 | 47 | 1018.4 |
| 20260503212003 | 86 | 196 | 2.6 | 12.2 | 0.00 | 0.00 | 0.00 | 47 | 1018.4 |
| 20260503211004 | 87 | 203 | 5.2 | 13.0 | 0.00 | 0.00 | 0.00 | 42 | 1018.6 |
| 20260503210003 | 86 | 178 | 3.5 | 13.0 | 0.00 | 0.00 | 0.00 | 43 | 1018.6 |
| 20260503205004 | 87 | 197 | 6.1 | 11.3 | 0.00 | 0.00 | 0.00 | 43 | 1018.7 |
| 20260503204003 | 85 | 74 | 4.3 | 13.0 | 0.00 | 0.00 | 0.00 | 45 | 1019.0 |
| 20260503203004 | 87 | 150 | 3.5 | 13.0 | 0.00 | 0.00 | 0.00 | 45 | 1019.2 |
| 20260503202003 | 85 | 169 | 5.2 | 14.8 | 0.00 | 0.00 | 0.00 | 47 | 1019.2 |
| 20260503201003 | 85 | 106 | 6.1 | 13.9 | 0.00 | 0.00 | 0.00 | 49 | 1019.2 |
| 20260503200004 | 85 | 143 | 6.1 | 17.4 | 0.00 | 0.00 | 0.00 | 49 | 1019.2 |
| 20260503195005 | 86 | 135 | 2.6 | 11.3 | 0.00 | 0.00 | 0.00 | 46 | 1019.5 |
| 20260503194003 | 85 | 148 | 4.3 | 11.3 | 0.00 | 0.00 | 0.00 | 43 | 1019.6 |
| 20260503193004 | 86 | 185 | 1.7 | 14.8 | 0.00 | 0.00 | 0.00 | 46 | 1019.6 |
| 20260503192003 | 85 | 243 | 2.6 | 8.7 | 0.00 | 0.00 | 0.00 | 42 | 1019.9 |
| 20260503190003 | 83 | 125 | 7.8 | 12.2 | 0.00 | 0.00 | 0.00 | 43 | 1020.2 |
| 20260503184004 | 82 | 196 | 4.3 | 10.4 | 0.00 | 0.00 | 0.00 | 50 | 1020.4 |
| 20260503183004 | 83 | 171 | 4.3 | 13.0 | 0.00 | 0.00 | 0.00 | 50 | 1020.5 |
| 20260503181004 | 82 | 162 | 5.2 | 10.4 | 0.00 | 0.00 | 0.00 | 51 | 1020.9 |
| 20260503180004 | 81 | 180 | 2.6 | 10.4 | 0.00 | 0.00 | 0.00 | 54 | 1021.0 |
| 20260503175004 | 80 | 173 | 2.6 | 10.4 | 0.00 | 0.00 | 0.00 | 53 | 1021.0 |
| 20260503174003 | 80 | 246 | 2.6 | 13.0 | 0.00 | 0.00 | 0.00 | 57 | 1021.0 |
| 20260503173003 | 81 | 170 | 2.6 | 8.7 | 0.00 | 0.00 | 0.00 | 55 | 1021.1 |
| 20260503172004 | 80 | 248 | 4.3 | 7.8 | 0.00 | 0.00 | 0.00 | 60 | 1021.2 |
| 20260503171003 | 78 | 166 | 3.5 | 7.8 | 0.00 | 0.00 | 0.00 | 62 | 1021.2 |
| 20260503131004 | 65 | 12 | 0.0 | 1.7 | 0.00 | 0.00 | 0.00 | 91 | 1020.5 |